TimeEST,TemperatureF,Dew PointF,Humidity,Sea Level PressureIn,VisibilityMPH,Wind Direction,Wind SpeedMPH,Gust SpeedMPH,PrecipitationIn,Events,Conditions,WindDirDegrees,DateUTC
12:16 AM,60.8,57.2,88,30.15,7.0,NNE,12.7,17.3,N/A,,Overcast,20,2013-01-15 05:16:00
12:36 AM,59.0,55.4,88,30.16,8.0,North,8.1,-,N/A,,Overcast,360,2013-01-15 05:36:00
12:53 AM,57.0,54.0,89,30.17,10.0,North,10.4,-,N/A,,Overcast,360,2013-01-15 05:53:00
1:53 AM,54.0,51.1,90,30.19,10.0,NNE,15.0,-,N/A,,Overcast,20,2013-01-15 06:53:00
2:53 AM,50.0,46.9,89,30.19,10.0,North,17.3,-,N/A,,Overcast,10,2013-01-15 07:53:00
3:53 AM,46.9,43.0,86,30.20,10.0,NNE,13.8,-,N/A,,Overcast,30,2013-01-15 08:53:00
4:53 AM,46.0,43.0,89,30.18,10.0,NE,9.2,18.4,N/A,,Overcast,50,2013-01-15 09:53:00
5:53 AM,46.0,43.0,89,30.19,10.0,NE,8.1,-,N/A,,Overcast,40,2013-01-15 10:53:00
6:53 AM,46.0,43.0,89,30.19,8.0,NE,5.8,-,N/A,,Overcast,50,2013-01-15 11:53:00
7:53 AM,46.0,44.1,93,30.19,5.0,NE,5.8,-,0.00,,Overcast,50,2013-01-15 12:53:00
8:53 AM,46.0,44.1,93,30.23,6.0,NE,5.8,-,N/A,,Overcast,40,2013-01-15 13:53:00
9:53 AM,46.9,44.1,90,30.23,5.0,NE,4.6,-,N/A,,Overcast,50,2013-01-15 14:53:00
10:38 AM,46.4,44.6,93,30.25,1.8,North,9.2,-,0.02,Rain,Rain,10,2013-01-15 15:38:00
10:53 AM,46.9,44.1,90,30.24,2.5,NNE,9.2,-,0.04,Rain,Light Rain,20,2013-01-15 15:53:00
11:10 AM,46.4,44.6,93,30.23,4.0,North,9.2,-,0.00,,Overcast,10,2013-01-15 16:10:00
11:53 AM,46.0,44.1,93,30.22,4.0,NNE,10.4,-,0.00,,Overcast,20,2013-01-15 16:53:00
12:19 PM,46.4,44.6,93,30.21,3.0,NNE,8.1,-,N/A,,Overcast,30,2013-01-15 17:19:00
12:53 PM,46.9,44.1,90,30.21,6.0,NNE,10.4,-,N/A,,Overcast,30,2013-01-15 17:53:00
1:01 PM,46.4,44.6,93,30.20,6.0,NE,6.9,-,N/A,,Overcast,40,2013-01-15 18:01:00
1:53 PM,46.9,45.0,93,30.19,4.0,NE,8.1,-,N/A,,Overcast,40,2013-01-15 18:53:00
2:53 PM,46.9,45.0,93,30.18,4.0,NNE,9.2,-,N/A,,Overcast,20,2013-01-15 19:53:00
3:53 PM,46.9,44.1,90,30.19,5.0,ENE,4.6,-,N/A,,Overcast,60,2013-01-15 20:53:00
4:53 PM,46.9,45.0,93,30.19,5.0,NE,3.5,-,N/A,,Overcast,40,2013-01-15 21:53:00
5:40 PM,46.4,44.6,93,30.19,2.0,NE,4.6,-,N/A,,Overcast,40,2013-01-15 22:40:00
5:47 PM,46.4,44.6,93,30.19,1.8,NNE,5.8,-,N/A,,Overcast,30,2013-01-15 22:47:00
5:48 PM,46.9,45.0,93,30.19,1.8,NNE,4.6,-,N/A,,Overcast,30,2013-01-15 22:48:00
6:15 PM,46.4,44.6,93,30.19,2.0,NNE,5.8,-,N/A,,Overcast,20,2013-01-15 23:15:00
6:26 PM,46.4,44.6,93,30.19,1.8,NE,4.6,-,N/A,,Overcast,40,2013-01-15 23:26:00
6:53 PM,46.0,45.0,96,30.19,1.5,NNE,6.9,-,N/A,,Overcast,20,2013-01-15 23:53:00
7:53 PM,46.0,45.0,96,30.17,1.5,NE,5.8,-,N/A,,Overcast,50,2013-01-16 00:53:00
8:53 PM,46.9,45.0,93,30.14,1.2,ENE,3.5,-,N/A,,Overcast,60,2013-01-16 01:53:00
9:53 PM,48.0,46.0,93,30.13,1.2,NNE,3.5,-,0.01,,Overcast,20,2013-01-16 02:53:00
10:53 PM,48.0,46.9,96,30.09,1.5,East,4.6,-,N/A,,Overcast,100,2013-01-16 03:53:00
11:53 PM,48.0,46.9,96,30.09,1.0,Calm,Calm,-,N/A,,Mist,0,2013-01-16 04:53:00